, AK

(GMT )
Denali Park

Weather History for PAIN - December, 2013

Change the Weather History Date:

Thursday, December 12, 2013

  Actual Average Record
Temperature  
Mean Temperature -3 °F -  
Max Temperature 3 °F 12 °F 48 °F (1985)
Min Temperature -9 °F -4 °F -41 °F (1964)
Degree Days  
Heating Degree Days 68    
Moisture  
Dew Point -6 °F    
Average Humidity 76    
Maximum Humidity 92    
Minimum Humidity 66    
Precipitation  
Precipitation 0.00 in - - ()
Sea Level Pressure  
Sea Level Pressure 29.54 in    
Wind  
Wind Speed 4 mph (North)    
Max Wind Speed 13 mph    
Max Gust Speed 21 mph    
Visibility 10 miles    
Events      
Averages and records for this station are not official NWS values.
T = Trace of Precipitation, MM = Missing Value Source: NWS Daily Summary

Daily Weather History Graph

Daily Weather History Graph

Search for Another Location

Airport or City:

Trip Planner

Search our weather history database for the weather conditions in past years. The results will help you decide how hot, cold, wet, or windy it might be!

Date:

Astronomy

Dec. 12, 2013 Rise Set
Actual Time 10:33 AM AKST 3:05 PM AKST
Civil Twilight 9:19 AM AKST 4:19 PM AKST
Nautical Twilight 8:12 AM AKST 5:26 PM AKST
Astronomical Twilight 7:13 AM AKST 6:25 PM AKST
Moon 1:39 PM AKST (12/12) 4:38 AM AKST (12/12)
Length of Visible Light 7h 00m
Length of Day
4h 31m
Waxing Gibbous, 81% of the Moon is Illuminated
Dec 12
Waxing Gibbous
Dec 17
Full
Dec 25
Last Quarter
Jan 1
New
Jan 7
First Quarter

Hourly Weather History & Observations

Time (AKST) Temp. Windchill Dew Point Humidity Pressure Visibility Wind Dir Wind Speed Gust Speed Precip Events Conditions
12:16 AM -0.4 °F - -7.6 °F 72% 29.64 in 10.0 mi Calm Calm - N/A   Overcast
12:36 AM -0.4 °F -13.4 °F -7.6 °F 72% 29.64 in 10.0 mi WSW 6.9 mph - N/A   Overcast
12:56 AM -0.4 °F -8.3 °F -7.6 °F 72% 29.63 in 10.0 mi SSW 3.5 mph - N/A   Overcast
1:16 AM -0.4 °F - -7.6 °F 72% 29.63 in 10.0 mi Calm Calm - N/A   Mostly Cloudy
1:36 AM -0.4 °F -10.4 °F -7.6 °F 72% 29.62 in 10.0 mi WSW 4.6 mph - N/A   Mostly Cloudy
1:56 AM -2.2 °F - -7.6 °F 78% 29.62 in 10.0 mi Calm Calm - N/A   Overcast
2:16 AM -2.2 °F - -7.6 °F 78% 29.61 in 10.0 mi Calm Calm - N/A   Overcast
2:36 AM -0.4 °F - -7.6 °F 72% 29.60 in 10.0 mi Calm Calm - N/A   Overcast
2:56 AM -0.4 °F -12.0 °F -5.8 °F 78% 29.60 in 10.0 mi SW 5.8 mph - N/A   Overcast
3:16 AM -0.4 °F - -5.8 °F 78% 29.60 in 10.0 mi Calm Calm - N/A   Overcast
3:36 AM -0.4 °F - -5.8 °F 78% 29.59 in 10.0 mi Calm Calm - N/A   Overcast
3:56 AM -2.2 °F - -5.8 °F 85% 29.58 in 10.0 mi Calm Calm - N/A   Overcast
4:16 AM -2.2 °F - -5.8 °F 85% 29.58 in 10.0 mi Calm Calm - N/A   Overcast
4:36 AM -2.2 °F -10.4 °F -5.8 °F 85% 29.57 in 10.0 mi SW 3.5 mph - N/A   Overcast
4:56 AM -2.2 °F - -5.8 °F 85% 29.56 in 10.0 mi Calm Calm - N/A   Overcast
5:16 AM -0.4 °F - -5.8 °F 78% 29.56 in 10.0 mi Calm Calm - N/A   Overcast
5:36 AM -0.4 °F - -5.8 °F 78% 29.56 in 10.0 mi Calm Calm - N/A   Overcast
5:56 AM -0.4 °F - -5.8 °F 78% 29.55 in 10.0 mi Calm Calm - N/A   Overcast
6:16 AM -0.4 °F - -5.8 °F 78% 29.54 in 10.0 mi Calm Calm - N/A   Overcast
6:36 AM -0.4 °F - -4.0 °F 85% 29.54 in 10.0 mi Calm Calm - N/A   Overcast
6:56 AM -0.4 °F - -4.0 °F 85% 29.54 in 10.0 mi Calm Calm - N/A   Overcast
7:16 AM -0.4 °F - -4.0 °F 85% 29.53 in 10.0 mi Calm Calm - N/A   Overcast
7:36 AM -0.4 °F - -4.0 °F 85% 29.53 in 10.0 mi Calm Calm - N/A   Overcast
7:56 AM -0.4 °F - -5.8 °F 78% 29.53 in 10.0 mi Calm Calm - N/A   Overcast
8:16 AM -0.4 °F - -4.0 °F 85% 29.52 in 10.0 mi Calm Calm - N/A   Overcast
8:36 AM -0.4 °F - -2.2 °F 92% 29.51 in 10.0 mi Calm Calm - N/A   Overcast
8:56 AM 1.4 °F -9.9 °F -2.2 °F 85% 29.51 in 10.0 mi NNE 5.8 mph - N/A   Overcast
9:16 AM 3.2 °F -10.3 °F -2.2 °F 78% 29.51 in 10.0 mi North 8.1 mph - N/A   Overcast
9:36 AM 3.2 °F -13.1 °F -4.0 °F 72% 29.51 in 10.0 mi North 11.5 mph 19.6 mph N/A   Overcast
9:56 AM 3.2 °F -13.9 °F -5.8 °F 66% 29.51 in 10.0 mi NNE 12.7 mph 20.7 mph N/A   Overcast
10:16 AM 3.2 °F -13.1 °F -5.8 °F 66% 29.51 in 10.0 mi NNE 11.5 mph 19.6 mph N/A   Overcast
10:36 AM 1.4 °F -9.9 °F -5.8 °F 72% 29.52 in 10.0 mi North 5.8 mph - N/A   Overcast
10:56 AM 1.4 °F -6.2 °F -5.8 °F 72% 29.52 in 10.0 mi NW 3.5 mph - N/A   Overcast
11:16 AM 1.4 °F -11.3 °F -5.8 °F 72% 29.52 in 10.0 mi North 6.9 mph - N/A   Overcast
11:56 AM 1.4 °F -9.9 °F -5.8 °F 72% 29.51 in 10.0 mi NW 5.8 mph - N/A   Overcast
12:16 PM 1.4 °F -11.3 °F -5.8 °F 72% 29.51 in 10.0 mi WNW 6.9 mph - N/A   Overcast
12:36 PM 1.4 °F -6.2 °F -4.0 °F 78% 29.52 in 10.0 mi NW 3.5 mph - N/A   Overcast
12:56 PM 1.4 °F -6.2 °F -5.8 °F 72% 29.52 in 10.0 mi NW 3.5 mph - N/A   Overcast
1:16 PM 1.4 °F -12.5 °F -5.8 °F 72% 29.52 in 10.0 mi North 8.1 mph - N/A   Mostly Cloudy
1:36 PM 1.4 °F -8.3 °F -5.8 °F 72% 29.53 in 10.0 mi North 4.6 mph - N/A   Mostly Cloudy
1:56 PM 1.4 °F -14.5 °F -5.8 °F 72% 29.52 in 10.0 mi North 10.4 mph 18.4 mph N/A   Overcast
2:16 PM 1.4 °F -13.5 °F -5.8 °F 72% 29.52 in 10.0 mi North 9.2 mph - N/A   Overcast
2:36 PM 1.4 °F -14.5 °F -5.8 °F 72% 29.52 in 10.0 mi North 10.4 mph 18.4 mph N/A   Overcast
2:56 PM 1.4 °F -16.1 °F -5.8 °F 72% 29.52 in 10.0 mi NNE 12.7 mph 18.4 mph N/A   Overcast
3:16 PM 1.4 °F -12.5 °F -5.8 °F 72% 29.52 in 10.0 mi NNE 8.1 mph - N/A   Overcast
3:36 PM 1.4 °F -15.3 °F -5.8 °F 72% 29.52 in 10.0 mi NNE 11.5 mph 18.4 mph N/A   Overcast
3:56 PM 1.4 °F -14.5 °F -5.8 °F 72% 29.52 in 10.0 mi NNE 10.4 mph 17.3 mph N/A   Overcast
4:16 PM 1.4 °F -15.3 °F -5.8 °F 72% 29.52 in 10.0 mi North 11.5 mph 17.3 mph N/A   Overcast
4:36 PM 1.4 °F -16.1 °F -5.8 °F 72% 29.52 in 10.0 mi North 12.7 mph 18.4 mph N/A   Overcast
4:56 PM 1.4 °F -15.3 °F -5.8 °F 72% 29.52 in 10.0 mi NNE 11.5 mph 19.6 mph N/A   Overcast
5:16 PM 1.4 °F -14.5 °F -5.8 °F 72% 29.53 in 10.0 mi North 10.4 mph 17.3 mph N/A   Overcast
5:36 PM 1.4 °F -15.3 °F -5.8 °F 72% 29.52 in 10.0 mi NNE 11.5 mph 17.3 mph N/A   Overcast
5:56 PM 1.4 °F -15.3 °F -5.8 °F 72% 29.52 in 10.0 mi NNE 11.5 mph 17.3 mph N/A   Overcast
6:16 PM 1.4 °F -14.5 °F -5.8 °F 72% 29.53 in 10.0 mi NNE 10.4 mph 17.3 mph N/A   Overcast
6:36 PM 1.4 °F -14.5 °F -5.8 °F 72% 29.53 in 10.0 mi NNE 10.4 mph 16.1 mph N/A   Overcast
6:56 PM 1.4 °F -12.5 °F -5.8 °F 72% 29.53 in 10.0 mi NNE 8.1 mph - N/A   Overcast
7:16 PM 1.4 °F -11.3 °F -5.8 °F 72% 29.54 in 10.0 mi North 6.9 mph - N/A   Overcast
7:36 PM 1.4 °F -12.5 °F -7.6 °F 66% 29.53 in 10.0 mi North 8.1 mph - N/A   Overcast
7:56 PM 1.4 °F -12.5 °F -7.6 °F 66% 29.53 in 10.0 mi NNE 8.1 mph - N/A   Overcast
8:16 PM 1.4 °F -9.9 °F -7.6 °F 66% 29.53 in 10.0 mi NNE 5.8 mph - N/A   Mostly Cloudy
8:36 PM -0.4 °F -12.0 °F -7.6 °F 72% 29.53 in 10.0 mi North 5.8 mph - N/A   Partly Cloudy
8:56 PM -2.2 °F - -9.4 °F 71% 29.53 in 10.0 mi Calm Calm - N/A   Clear
9:16 PM -2.2 °F - -9.4 °F 71% 29.53 in 10.0 mi Calm Calm - N/A   Clear
9:36 PM -4.0 °F -14.6 °F -9.4 °F 78% 29.53 in 10.0 mi NNW 4.6 mph - N/A   Clear
9:56 PM -4.0 °F -12.4 °F -9.4 °F 78% 29.53 in 10.0 mi NW 3.5 mph - N/A   Clear
10:16 PM -5.8 °F - -9.4 °F 84% 29.53 in 10.0 mi Calm Calm - N/A   Clear
10:36 PM -5.8 °F - -11.2 °F 77% 29.54 in 10.0 mi Calm Calm - N/A   Clear
10:56 PM -7.6 °F - -13.0 °F 77% 29.55 in 10.0 mi Calm Calm - N/A   Mostly Cloudy
11:16 PM -9.4 °F - -13.0 °F 84% 29.55 in 10.0 mi Calm Calm - N/A   Overcast
11:36 PM -7.6 °F - - N/A% 29.56 in 10.0 mi Calm Calm - N/A   Overcast
11:56 PM -7.6 °F - -11.2 °F 84% 29.57 in 10.0 mi Calm Calm - N/A   Overcast